Retour au catalogue

THORAD AGENA D DEB

ActifPO
NORAD 4719·DEBRIS·🇺🇸 United States

Lancé Apr 8, 1970 depuis Vandenberg Space Force Base

Loading…

Prochains Passages (prochaines 24 heures)

TLE

FraisSource: Space-Track

Époque: Sep 14, 2026, 13:55 UTC

1 04719U 70025CD  26257.58019201  .00000044  00000-0  64916-4 0  9991
2 04719  99.9380 321.2356 0120340 329.9440  29.4850 13.96676922855078

Suivez THORAD AGENA D DEB en temps réel avec AllMySat

Download on the App Store